User: anonymous   Login
Location: Abraham Lincoln Continuation High School
(33.9711°N, 117.3662°W)
Time: 19:04:38
(UTC+00:00)
Language:

Cosmos 1072 Rocket - Orbit

View from above orbital plane
View from above orbital plane
View from above satellite
View from above satellite

Ground track
Ground track

The orbit data is extracted from the following two-line orbital elements,

1 11239U 79003B   20330.86308367 +.00000037 +00000-0 +21863-4 0  9998
2 11239 082.9405 235.0088 0041843 118.6602 311.2681 13.75842705100540
Epoch (UTC): 25 November 2020 20:42:50
Eccentricity: 0.0041843
inclination: 82.9405°
perigee height: 948 km
apogee height: 1009 km
right ascension of ascending node: 235.0088°
argument of perigee: 118.6602°
revolutions per day: 13.75842705
mean anomaly at epoch: 311.2681°
orbit number at epoch: 10054

The dashed part of the orbit path shows where the satellite is in the earth's shadow,  

DLR